Погода Тивяку

Погода Тивяку : погода сейчас, прогноз погоды и архив. Всё, что Вы хотите узнать о погоде Тивяку!

Хотите узнать прогноз погоды Тивяку? Тогда Вам сюда: Погода Тивяку

Поиск расширенной информации на нашем сайте:

Другие новости

Новости СМИ2

Главная страница сайта

Новости сайта

03.07.2017

Напоминаем, что на нашем специализированном сайте Метеоцентр.Азия вы можете получить высокодетализированные автоматические прогнозы погоды по пунктам России, СНГ и мира в авиационном формате (включающие направление и скорость ветра, видимость, явления погоды, количество и форму облачности, нижнюю и верхнюю границу облачности).


Погода Тивяку - сегодня

Время (UTC), дата Ветер
(°,м/с) 
Видим.   Явления Облачность Т
(°С)
Тd
(°С)
f(%) Тe
(°С)
Pmin
(гПа)
dP
(гПа)
Po
(мм)
O2
(г/м3)
Тmin Tmax R s Состояние
почвы
09 23.07.17 тихо ()   20000 м    10/10 600 м кучево-дожд. 
[Cb cap]
+19.6 +16.3 81 +32  1002.1  -1.2  717  266    +24.2       
12 23.07.17 тихо ()   20000 м  слаб. ливневой дождь  10/10 600 м кучево-дожд. 
[Cb cap]
+16.8 +16.2 96 +29  1003.3  0.7  718  269           
15 23.07.17 тихо ()   20000 м  {ливн. осадки}  10/10 600 м кучево-дожд. 
[Cb cap]
+15.6 +15.1 97 +26  1001  -2.4  716  270           
18 23.07.17 190 (Ю) 20000 м  слаб. ливневой дождь  10/10 600 м кучево-дожд. 
[Cb cap]
+15.7 +14.9 95 +27  999.2  -1.7  715  269           
21 23.07.17 140 (ЮВ) 20000 м  {ливн. осадки}  10/10 600 м кучево-дожд. 
[Cb cap]
+15.9 +15.4 97 +28  998.5  -0.6  714  269  +15.3      влажная 
00 24.07.17 200 (Ю) 20000 м  {ливн. осадки}  9/9 600 м кучево-дожд. 
[Cb cap]
+20.3 +16.9 81 +34  997.6  0.1  714  264           
03 24.07.17 220 (ЮЗ) 20000 м    9/9 600 м кучево-дожд. 
[Cb cap]
+22.8 +15.7 64 +34  995.9  -1.2  713  262           
06 24.07.17 260 (З) 20000 м    8/8 600 м кучево-дожд. 
[Cb cap]
+22.5 +14.9 62 +32  995.4  -0.5  713  262           
09 24.07.17 330 (СЗ) 20000 м  гроза без осадков{ливн. осадки}  10/10 600 м кучево-дожд. 
[Cb cap]
+18.5 +16.9 90 +34  996.3  0.3  713  265    +23.9  0.6     
12 24.07.17 тихо ()   10 км  гроза, ливневой дождь  10/10 600 м кучево-дожд. 
[Cb cap]
+15 +14.7 98 +24  998.5  1.5  714  270           
15 24.07.17 тихо ()   20000 м  {гроза, ливн. осадки}  6/6 600 м кучево-дожд. 
[Cb cap]
+14.4 +14.1 98 +23  998.1  -0.5  714  270           
18 24.07.17 тихо ()   20000 м  {гроза, ливн. осадки}  6/6 600 м кучево-дожд. 
[Cb cap]
+12.5 +12.3 99 +18  998.6  0.2  714  273           
21 24.07.17 тихо ()   20000 м    8/8 600 м кучево-дожд. 
[Cb cap]
+13.4 +13.2 99 +20  998.8  0.3  714  272  +10.2      влажная 
00 25.07.17 280 (З) 20000 м    8/8 600 м кучево-дожд. 
[Cb cap]
+16.6 +12.3 76 +23  998.8  0.6  715  269           
03 25.07.17 270 (З) 20000 м    8/6 600 м кучево-дожд., верхняя 
[Cb cap|Ci fib]
+19.8 +10.9 56 +24  998  -0.4  714  266           
06 25.07.17 270 (З) 20000 м    8/8 600 м кучево-дожд. 
[Cb cap]
+18.5 +11 62 +23  999  0.8  715  268           
09 25.07.17 210 (ЮЗ) 20000 м  в посл. час гроза{ливн. осадки}  10/10 600 м кучево-дожд. 
[Cb cap]
+15.2 +13.6 90 +25  1001.3  1.6  716  270    +20.3  0.3     
12 25.07.17 тихо ()   20000 м  {гроза, ливн. осадки}  10/10 600 м кучево-дожд. 
[Cb cap]
+15.2 +13.6 90 +23  1001.3  1.5  717  271           
15 25.07.17 тихо ()   20000 м    10/10 600 м кучево-дожд. 
[Cb cap]
+12.2 +11.9 98 +17  1003.6  0.2  717  274           
18 25.07.17 тихо ()   20000 м    10/10 600 м кучево-дожд. 
[Cb cap]
+12 +11.8 99 +17  1004.2  0.6  718  275           
21 25.07.17 тихо ()   20000 м    10/8 600 м кучево-дожд., средняя 
[Cb cap|As op]
+12.8 +12.6 99 +19  1005.7  1.6  719  274  +11.7    0.4    влажная 
00 26.07.17 110 (В) 20000 м    10/4 600 м кучево-дожд., средняя 
[Cb cap|As trans]
+16.7 +12.7 77 +24  1006.3  1.1  720  271           
03 26.07.17 280 (З) 20000 м  в посл. час ливневой дождь  10/10 600 м кучево-дожд. 
[Cb cap]
+18.2 +15.5 84 +31  1006.7  0.7  720  269           
06 26.07.17 290 (З) 20000 м  {ливн. осадки}  9/9 600 м кучево-дожд. 
[Cb cap]
+20.2 +14 68 +28  1006.7  0.3  721  267           
12 26.07.17 тихо ()   0500 м  туман  4/0 верхняя 
[Ci fib]
+13.5 +13.1 97 +20  1010.1  1.2  722  275           
Время (UTC), дата Ветер
(°,м/с) 
Видим.   Явления Облачность Т
(°С)
Тd
(°С)
f(%) Тe
(°С)
Pmin
(гПа)
dP
(гПа)
Po
(мм)
O2
(г/м3)
Тmin Tmax R s Состояние
почвы

Для получения пояснительной информации подведите курсор к названию столбца.

ПОГОДА Тивяку - архив

Всё, что Вы хотите узнать о погоде Тивяку - удобно и подробно!

Выберите нужную дату (начиная с 1 января 2015* года) и нажмите кнопку "Найти".
Будут отображены архивные сводки погоды по пункту Тивяку, начиная с указанной даты.


Отображать данные в формате CSV (для использования в таблицах Excel)


Внимание! Наш архив погоды предназначен исключительно для личного некоммерческого использования в познавательных целях. Если Вам необходимы официальные справки о состоянии погоды (для производственных, юридических, коммерческих и т.п. целей), обращайтесь в органы Росгидромета.

*Примечание: данная дата относится к архиву по метеостанциям СССР (Россия, СНГ, Балтия).
Архив по метеостанциям Зарубежной Европы и Азии (кроме Китая) хранится 10 дней, по другим регионам земного шара (Китай, Африка, Америка, Австралия, Океания) - 1 день.

Тивяку - район местоположения метеостанции


Название, широта, долгота, высота метеостанции:
Тивяку 48.6°ш. 137.1°д. 403 м над ур. моря [Российская Федерация]

Дополнительная информация

В oтличие oт бoльшинства пoгoдных сайтoв мы публикуем пoдрoбную метеoинфoрмацию в детальнoм прoфессиoнальнoм фoрмате.

Характеристики температуры и влажнoсти вoздуха измеряются на высoте 2 м в тени вдали oт зданий и деревьев.
Скoрoсть ветра измеряется на высoте 10 м (на урoвне рoста челoвека скoрoсть ветра ниже в 1.5-2 раза). Если метеoстанция нахoдится в гoрoде или в лесу, тo скoрoсть ветра занижена на 2-4 м/с пo сравнению с oткрытым местoм. Скoрoсть ветра над акватoриями крупных рек и oзёр, а также на вершинах хoлмoв на 2-5 м/с выше, чем в oбычных услoвиях.
Атмoсфернoе давление в разных тoчках местнoсти мoжет значительнo oтличаться oт давления на метеoстанции, в зависимoсти oт услoвий рельефа (при пoдъёме на 10 м давление пoнижается примернo на 1 мм рт.ст.).